Regional Weather Roundup
Issued by NWS Newport/Morehead, NC

Current Version | Previous Version | Graphics & Text | Print | Product List | Glossary Off
Versions: 1 2 3 4 5 6 7 8 9 10 11 12 13 14 15 16 17 18 19 20 21 22 23 24 25 26 27 28 29 30 31 32 33 34 35 36 37 38 39 40 41 42 43 44 45 46 47 48 49 50

000
ASUS42 KMHX 291525
RWRMHX
WEATHER ROUNDUP FOR EASTERN NORTH CAROLINA
NATIONAL WEATHER SERVICE NEWPORT/MOREHEAD CITY NC
1100 AM EDT MON JUN 29 2015

NOTE: "FAIR" INDICATES FEW OR NO CLOUDS BELOW 12,000 FEET
WITH NO SIGNIFICANT WEATHER AND/OR OBSTRUCTIONS TO VISIBILITY

NCZ015>017-031-032-045>047-102-103-291600-
NORTH COAST

CITY           SKY/WX    TMP DP  RH WIND       PRES   REMARKS
EDENTON          N/A     81  65  58 E10       30.00S
ELIZABETH CITY SUNNY     81  62  52 E9        30.00F
KITTY HAWK     SUNNY     84  62  48 E8        29.99F
MANTEO         MOSUNNY   80  64  57 E12       30.00F

$$

NCZ045>047-081-094-103-104-291600-
CENTRAL COAST

CITY           SKY/WX    TMP DP  RH WIND       PRES   REMARKS
FRISCO         PTSUNNY   80  68  66 SE10      29.99F
SWANQUARTER      N/A     82 N/A N/A S8G15     29.94S

$$

NCZ095-097-098-100-101-291600-
SOUTHERN COAST

CITY           SKY/WX    TMP DP  RH WIND       PRES   REMARKS
BEAUFORT       MOSUNNY   81  71  71 VRB7      29.99S
CEDAR ISLAND     N/A     81 N/A N/A E13       30.03S
JACKSONVILLE   PTSUNNY   82  69  64 SE13      29.98S
PINEY ISLAND   SUNNY    N/A N/A N/A SE12      29.98S
WILMINGTON     CLOUDY    81  69  67 E5        29.98R


$$

NCZ011>013-027>030-043-044-078>080-089-090>093-098-291600-
COASTAL PLAIN

CITY           SKY/WX    TMP DP  RH WIND       PRES   REMARKS
AHOSKIE        SUNNY     77  59  53 N6        30.01S
CLINTON        SUNNY     82  65  55 CALM      29.98F
ELIZABETHTOWN  SUNNY     83  66  55 SE5       29.98R
GOLDSBORO      MOSUNNY   83  60  46 VRB7      29.97
GREENVILLE     SUNNY     81  63  54 E7        30.01S
HAVELOCK       PTSUNNY   82  69  64 VRB5      29.99S
KENANSVILLE    SUNNY     81  61  49 SE6       29.99S
KINSTON        SUNNY     82  59  44 E5        30.00S
NEW BERN       MOSUNNY   83  69  62 SE9       30.00R
RICHLANDS      CLOUDY    84  66  54 SE8       29.99R
ROCKY MOUNT    MOSUNNY   82  62  50 VRB6      30.00S
WASHINGTON     MOSUNNY   81  62  51 E7        29.99S
WHITEVILLE     SUNNY     82  71  69 CALM      29.98R

$$

AMZ130-135-150-152-154-156-158-170-250-252-270-ANZ085-086-088-633-658-670-291600-
MARINE OBSERVATIONS

STATION/POSITION TIME  TEMP    WIND        PRES    WAVE   SWELL
                       AIR SEA DIR/SP/G            HT/PER HT/PER
                 (UTC) (F)     (DEG/KT/KT) (MB)    (FT/S) (FT/S)
CHESAPEAKE LIGHT 1500   74     340/  6/  6 1017.0
64 E VA BEACH    1450   76 75   90/  2/  4 1015.8    5/ 8   5/ 8
DUCK             1500   77 70   70/  8/  9 1015.3
2 E DUCK         1411      75                N/A     2/ 7
OREGON INLET     1500   77 74   50/  7/ 10 1015.7
13E OREGON INLT  1500      75                N/A     4/ 8
HATTERAS CG      1500   79 80  130/  8/ 12 1015.3
DIAMOND BUOY     1450   77 81  120/ 10/ 14 1015.3    4/ 7   3/ 7
CAPE LOOKOUT     1500   78     120/ 11/ 12 1015.0
BEAUFORT LAB     1500   78 81  130/  8/ 11 1014.8
30 SE NEW RVR IN 1408   78 80  140/ 12/ 16 1015.6
27 SE WRIGHTSVLE 1500          140/ 10/ 12   N/A
5 SE WRIGHTSVLE  1408   77 79  130/  6/ 10 1015.1
225 S CAPE HAT   1450   80 80  240/ 16/ 21 1018.5    6/ 7   3/14
41 SE CHARLESTON 1450   80 83  270/ 12/ 16 1015.3    4/ 7   3/ 7

$$


USA.gov is the U.S. government's official web portal to all federal, state and local government web resources and services.